�v������,�v���f�[�^(L),����(MJ),�����t���O
2004/6/1 0:00,0,0,0
2004/6/1 0:15,0,0,0
2004/6/1 0:30,0,0,0
2004/6/1 0:45,0,0,0
2004/6/1 1:00,0,0,0
2004/6/1 1:15,0,0,0
2004/6/1 1:30,0,0,0
2004/6/1 1:45,0,0,0
2004/6/1 2:00,0,0,0
2004/6/1 2:15,0,0,0
2004/6/1 2:30,0,0,0
2004/6/1 2:45,0,0,0
2004/6/1 3:00,0,0,0
2004/6/1 3:15,0,0,0
2004/6/1 3:30,0,0,0
2004/6/1 3:45,0,0,0
2004/6/1 4:00,0,0,0
2004/6/1 4:15,0,0,0
2004/6/1 4:30,0,0,0
2004/6/1 4:45,0,0,0
2004/6/1 5:00,0,0,0
2004/6/1 5:15,0,0,0
2004/6/1 5:30,0,0,0
2004/6/1 5:45,0,0,0
2004/6/1 6:00,0,0,0
2004/6/1 6:15,0,0,0
2004/6/1 6:30,0,0,0
2004/6/1 6:45,0,0,0
2004/6/1 7:00,0,0,0
2004/6/1 7:15,0,0,0
2004/6/1 7:30,0,0,0
2004/6/1 7:45,0,0,0
2004/6/1 8:00,0,0,0
2004/6/1 8:15,0,0,0
2004/6/1 8:30,0,0,0
2004/6/1 8:45,0,0,0
2004/6/1 9:00,0,0,0
2004/6/1 9:15,0,0,0
2004/6/1 9:30,0,0,0
2004/6/1 9:45,0,0,0
2004/6/1 10:00,0,0,0
2004/6/1 10:15,0,0,0
2004/6/1 10:30,0,0,0
2004/6/1 10:45,0,0,0
2004/6/1 11:00,0,0,0
2004/6/1 11:15,0,0,0
2004/6/1 11:30,0,0,0
2004/6/1 11:45,0,0,0
2004/6/1 12:00,0,0,0
2004/6/1 12:15,0,0,0
2004/6/1 12:30,0,0,0
2004/6/1 12:45,0,0,0
2004/6/1 13:00,0,0,0
2004/6/1 13:15,0,0,0
2004/6/1 13:30,0,0,0
2004/6/1 13:45,0,0,0
2004/6/1 14:00,0,0,0
2004/6/1 14:15,0,0,0
2004/6/1 14:30,0,0,0
2004/6/1 14:45,0,0,0
2004/6/1 15:00,0,0,0
2004/6/1 15:15,0,0,0
2004/6/1 15:30,0,0,0
2004/6/1 15:45,0,0,0
2004/6/1 16:00,0,0,0
2004/6/1 16:15,0,0,0
2004/6/1 16:30,0,0,0
2004/6/1 16:45,0,0,0
2004/6/1 17:00,0,0,0
2004/6/1 17:15,0,0,0
2004/6/1 17:30,0,0,0
2004/6/1 17:45,0,0,0
2004/6/1 18:00,0,0,0
2004/6/1 18:15,0,0,0
2004/6/1 18:30,0,0,0
2004/6/1 18:45,0,0,0
2004/6/1 19:00,0,0,0
2004/6/1 19:15,0,0,0
2004/6/1 19:30,0,0,0
2004/6/1 19:45,0,0,0
2004/6/1 20:00,0,0,0
2004/6/1 20:15,0,0,0
2004/6/1 20:30,0,0,0
2004/6/1 20:45,0,0,0
2004/6/1 21:00,0,0,0
2004/6/1 21:15,0,0,0
2004/6/1 21:30,0,0,0
2004/6/1 21:45,0,0,0
2004/6/1 22:00,0,0,0
2004/6/1 22:15,0,0,0
2004/6/1 22:30,0,0,0
2004/6/1 22:45,0,0,0
2004/6/1 23:00,0,0,0
2004/6/1 23:15,0,0,0
2004/6/1 23:30,0,0,0
2004/6/1 23:45,0,0,0
2004/6/2 0:00,0,0,0
2004/6/2 0:15,0,0,0
2004/6/2 0:30,0,0,0
2004/6/2 0:45,0,0,0
2004/6/2 1:00,0,0,0
2004/6/2 1:15,0,0,0
2004/6/2 1:30,0,0,0
2004/6/2 1:45,0,0,0
2004/6/2 2:00,0,0,0
2004/6/2 2:15,0,0,0
2004/6/2 2:30,0,0,0
2004/6/2 2:45,0,0,0
2004/6/2 3:00,0,0,0
2004/6/2 3:15,0,0,0
2004/6/2 3:30,0,0,0
2004/6/2 3:45,0,0,0
2004/6/2 4:00,0,0,0
2004/6/2 4:15,0,0,0
2004/6/2 4:30,0,0,0
2004/6/2 4:45,0,0,0
2004/6/2 5:00,0,0,0
2004/6/2 5:15,0,0,0
2004/6/2 5:30,0,0,0
2004/6/2 5:45,0,0,0
2004/6/2 6:00,0,0,0
2004/6/2 6:15,0,0,0
2004/6/2 6:30,0,0,0
2004/6/2 6:45,0,0,0
2004/6/2 7:00,6.595174313,0.246000007,0
2004/6/2 7:15,8.284182072,0.309,0
2004/6/2 7:30,10.56300306,0.394000009,0
2004/6/2 7:45,0,0,0
2004/6/2 8:00,0,0,0
2004/6/2 8:15,0,0,0
2004/6/2 8:30,0,0,0
2004/6/2 8:45,0,0,0
2004/6/2 9:00,0,0,0
2004/6/2 9:15,0,0,0
2004/6/2 9:30,0,0,0
2004/6/2 9:45,0,0,0
2004/6/2 10:00,0,0,0
2004/6/2 10:15,0,0,0
2004/6/2 10:30,0,0,0
2004/6/2 10:45,0,0,0
2004/6/2 11:00,0,0,0
2004/6/2 11:15,0,0,0
2004/6/2 11:30,0,0,0
2004/6/2 11:45,0,0,0
2004/6/2 12:00,0,0,0
2004/6/2 12:15,0,0,0
2004/6/2 12:30,0,0,0
2004/6/2 12:45,0,0,0
2004/6/2 13:00,0,0,0
2004/6/2 13:15,0,0,0
2004/6/2 13:30,0,0,0
2004/6/2 13:45,0,0,0
2004/6/2 14:00,0,0,0
2004/6/2 14:15,0,0,0
2004/6/2 14:30,0,0,0
2004/6/2 14:45,0,0,0
2004/6/2 15:00,0,0,0
2004/6/2 15:15,0,0,0
2004/6/2 15:30,0,0,0
2004/6/2 15:45,0,0,0
2004/6/2 16:00,0,0,0
2004/6/2 16:15,0,0,0
2004/6/2 16:30,0,0,0
2004/6/2 16:45,0,0,0
2004/6/2 17:00,0,0,0
2004/6/2 17:15,0,0,0
2004/6/2 17:30,0,0,0
2004/6/2 17:45,0,0,0
2004/6/2 18:00,0,0,0
2004/6/2 18:15,0,0,0
2004/6/2 18:30,0,0,0
2004/6/2 18:45,0,0,0
2004/6/2 19:00,0,0,0
2004/6/2 19:15,0,0,0
2004/6/2 19:30,0,0,0
2004/6/2 19:45,0,0,0
2004/6/2 20:00,0,0,0
2004/6/2 20:15,0,0,0
2004/6/2 20:30,0,0,0
2004/6/2 20:45,0,0,0
2004/6/2 21:00,0,0,0
2004/6/2 21:15,0,0,0
2004/6/2 21:30,0,0,0
2004/6/2 21:45,0,0,0
2004/6/2 22:00,0,0,0
2004/6/2 22:15,0,0,0
2004/6/2 22:30,0,0,0
2004/6/2 22:45,0,0,0
2004/6/2 23:00,0,0,0
2004/6/2 23:15,0,0,0
2004/6/2 23:30,0,0,0
2004/6/2 23:45,0,0,0
2004/6/3 0:00,0,0,0
2004/6/3 0:15,0,0,0
2004/6/3 0:30,0,0,0
2004/6/3 0:45,0,0,0
2004/6/3 1:00,0,0,0
2004/6/3 1:15,0,0,0
2004/6/3 1:30,0,0,0
2004/6/3 1:45,0,0,0
2004/6/3 2:00,0,0,0
2004/6/3 2:15,0,0,0
2004/6/3 2:30,0,0,0
2004/6/3 2:45,0,0,0
2004/6/3 3:00,0,0,0
2004/6/3 3:15,0,0,0
2004/6/3 3:30,0,0,0
2004/6/3 3:45,0,0,0
2004/6/3 4:00,0,0,0
2004/6/3 4:15,0,0,0
2004/6/3 4:30,0,0,0
2004/6/3 4:45,0,0,0
2004/6/3 5:00,0,0,0
2004/6/3 5:15,0,0,0
2004/6/3 5:30,0,0,0
2004/6/3 5:45,0,0,0
2004/6/3 6:00,0,0,0
2004/6/3 6:15,0,0,0
2004/6/3 6:30,0,0,0
2004/6/3 6:45,9.410187245,0.350999996,0
2004/6/3 7:00,8.25737238,0.307999998,0
2004/6/3 7:15,8.25737238,0.307999998,0
2004/6/3 7:30,6.595174313,0.246000007,0
2004/6/3 7:45,0,0,0
2004/6/3 8:00,0,0,0
2004/6/3 8:15,0,0,0
2004/6/3 8:30,0,0,0
2004/6/3 8:45,0,0,0
2004/6/3 9:00,0,0,0
2004/6/3 9:15,0,0,0
2004/6/3 9:30,0,0,0
2004/6/3 9:45,0,0,0
2004/6/3 10:00,0,0,0
2004/6/3 10:15,0,0,0
2004/6/3 10:30,0,0,0
2004/6/3 10:45,0,0,0
2004/6/3 11:00,0,0,0
2004/6/3 11:15,0,0,0
2004/6/3 11:30,0,0,0
2004/6/3 11:45,0,0,0
2004/6/3 12:00,0,0,0
2004/6/3 12:15,0,0,0
2004/6/3 12:30,0,0,0
2004/6/3 12:45,0,0,0
2004/6/3 13:00,0,0,0
2004/6/3 13:15,0,0,0
2004/6/3 13:30,0,0,0
2004/6/3 13:45,0,0,0
2004/6/3 14:00,0,0,0
2004/6/3 14:15,0,0,0
2004/6/3 14:30,0,0,0
2004/6/3 14:45,0,0,0
2004/6/3 15:00,0,0,0
2004/6/3 15:15,0,0,0
2004/6/3 15:30,0,0,0
2004/6/3 15:45,0,0,0
2004/6/3 16:00,0,0,0
2004/6/3 16:15,0,0,0
2004/6/3 16:30,0,0,0
2004/6/3 16:45,0,0,0
2004/6/3 17:00,0,0,0
2004/6/3 17:15,0,0,0
2004/6/3 17:30,0,0,0
2004/6/3 17:45,0,0,0
2004/6/3 18:00,0,0,0
2004/6/3 18:15,0,0,0
2004/6/3 18:30,0,0,0
2004/6/3 18:45,0,0,0
2004/6/3 19:00,0,0,0
2004/6/3 19:15,0,0,0
2004/6/3 19:30,0,0,0
2004/6/3 19:45,0,0,0
2004/6/3 20:00,0,0,0
2004/6/3 20:15,0,0,0
2004/6/3 20:30,0,0,0
2004/6/3 20:45,0,0,0
2004/6/3 21:00,0,0,0
2004/6/3 21:15,0,0,0
2004/6/3 21:30,0,0,0
2004/6/3 21:45,0,0,0
2004/6/3 22:00,0,0,0
2004/6/3 22:15,0,0,0
2004/6/3 22:30,0,0,0
2004/6/3 22:45,0,0,0
2004/6/3 23:00,0,0,0
2004/6/3 23:15,0,0,0
2004/6/3 23:30,0,0,0
2004/6/3 23:45,0,0,0
2004/6/4 0:00,0,0,0
2004/6/4 0:15,0,0,0
2004/6/4 0:30,0,0,0
2004/6/4 0:45,0,0,0
2004/6/4 1:00,0,0,0
2004/6/4 1:15,0,0,0
2004/6/4 1:30,0,0,0
2004/6/4 1:45,0,0,0
2004/6/4 2:00,0,0,0
2004/6/4 2:15,0,0,0
2004/6/4 2:30,0,0,0
2004/6/4 2:45,0,0,0
2004/6/4 3:00,0,0,0
2004/6/4 3:15,0,0,0
2004/6/4 3:30,0,0,0
2004/6/4 3:45,0,0,0
2004/6/4 4:00,0,0,0
2004/6/4 4:15,0,0,0
2004/6/4 4:30,0,0,0
2004/6/4 4:45,0,0,0
2004/6/4 5:00,0,0,0
2004/6/4 5:15,0,0,0
2004/6/4 5:30,0,0,0
2004/6/4 5:45,5.120643616,0.191,0
2004/6/4 6:00,6.514745713,0.243000009,0
2004/6/4 6:15,6.353887797,0.237000012,0
2004/6/4 6:30,6.353887797,0.237000012,0
2004/6/4 6:45,6.353887797,0.237000012,0
2004/6/4 7:00,6.353887797,0.237000012,0
2004/6/4 7:15,10.24128723,0.382000015,0
2004/6/4 7:30,0,0,0
2004/6/4 7:45,0,0,0
2004/6/4 8:00,0,0,0
2004/6/4 8:15,0,0,0
2004/6/4 8:30,0,0,0
2004/6/4 8:45,0,0,0
2004/6/4 9:00,0,0,0
2004/6/4 9:15,0,0,0
2004/6/4 9:30,0,0,0
2004/6/4 9:45,0,0,0
2004/6/4 10:00,0,0,0
2004/6/4 10:15,0,0,0
2004/6/4 10:30,0,0,0
2004/6/4 10:45,0,0,0
2004/6/4 11:00,0,0,0
2004/6/4 11:15,0,0,0
2004/6/4 11:30,0,0,0
2004/6/4 11:45,0,0,0
2004/6/4 12:00,0,0,0
2004/6/4 12:15,0,0,0
2004/6/4 12:30,0,0,0
2004/6/4 12:45,0,0,0
2004/6/4 13:00,0,0,0
2004/6/4 13:15,0,0,0
2004/6/4 13:30,0,0,0
2004/6/4 13:45,0,0,0
2004/6/4 14:00,0,0,0
2004/6/4 14:15,0,0,0
2004/6/4 14:30,0,0,0
2004/6/4 14:45,0,0,0
2004/6/4 15:00,0,0,0
2004/6/4 15:15,0,0,0
2004/6/4 15:30,0,0,0
2004/6/4 15:45,0,0,0
2004/6/4 16:00,0,0,0
2004/6/4 16:15,0,0,0
2004/6/4 16:30,0,0,0
2004/6/4 16:45,0,0,0
2004/6/4 17:00,0,0,0
2004/6/4 17:15,0,0,0
2004/6/4 17:30,0,0,0
2004/6/4 17:45,0,0,0
2004/6/4 18:00,0,0,0
2004/6/4 18:15,0,0,0
2004/6/4 18:30,0,0,0
2004/6/4 18:45,0,0,0
2004/6/4 19:00,0,0,0
2004/6/4 19:15,0,0,0
2004/6/4 19:30,0,0,0
2004/6/4 19:45,0,0,0
2004/6/4 20:00,0,0,0
2004/6/4 20:15,0,0,0
2004/6/4 20:30,0,0,0
2004/6/4 20:45,0,0,0
2004/6/4 21:00,0,0,0
2004/6/4 21:15,0,0,0
2004/6/4 21:30,0,0,0
2004/6/4 21:45,0,0,0
2004/6/4 22:00,0,0,0
2004/6/4 22:15,0,0,0
2004/6/4 22:30,0,0,0
2004/6/4 22:45,0,0,0
2004/6/4 23:00,0,0,0
2004/6/4 23:15,0,0,0
2004/6/4 23:30,0,0,0
2004/6/4 23:45,0,0,0
2004/6/5 0:00,0,0,0
2004/6/5 0:15,0,0,0
2004/6/5 0:30,0,0,0
2004/6/5 0:45,0,0,0
2004/6/5 1:00,0,0,0
2004/6/5 1:15,0,0,0
2004/6/5 1:30,0,0,0
2004/6/5 1:45,0,0,0
2004/6/5 2:00,0,0,0
2004/6/5 2:15,0,0,0
2004/6/5 2:30,0,0,0
2004/6/5 2:45,0,0,0
2004/6/5 3:00,0,0,0
2004/6/5 3:15,0,0,0
2004/6/5 3:30,0,0,0
2004/6/5 3:45,0,0,0
2004/6/5 4:00,0,0,0
2004/6/5 4:15,0,0,0
2004/6/5 4:30,0,0,0
2004/6/5 4:45,0,0,0
2004/6/5 5:00,0,0,0
2004/6/5 5:15,0,0,0
2004/6/5 5:30,0,0,0
2004/6/5 5:45,0,0,0
2004/6/5 6:00,0,0,0
2004/6/5 6:15,0,0,0
2004/6/5 6:30,0,0,0
2004/6/5 6:45,0,0,0
2004/6/5 7:00,0,0,0
2004/6/5 7:15,0,0,0
2004/6/5 7:30,0,0,0
2004/6/5 7:45,0,0,0
2004/6/5 8:00,0,0,0
2004/6/5 8:15,0,0,0
2004/6/5 8:30,0,0,0
2004/6/5 8:45,0,0,0
2004/6/5 9:00,0,0,0
2004/6/5 9:15,0,0,0
2004/6/5 9:30,0,0,0
2004/6/5 9:45,0,0,0
2004/6/5 10:00,0,0,0
2004/6/5 10:15,0,0,0
2004/6/5 10:30,0,0,0
2004/6/5 10:45,0,0,0
2004/6/5 11:00,0,0,0
2004/6/5 11:15,0,0,0
2004/6/5 11:30,0,0,0
2004/6/5 11:45,0,0,0
2004/6/5 12:00,0,0,0
2004/6/5 12:15,0,0,0
2004/6/5 12:30,0,0,0
2004/6/5 12:45,0,0,0
2004/6/5 13:00,0,0,0
2004/6/5 13:15,0,0,0
2004/6/5 13:30,0,0,0
2004/6/5 13:45,0,0,0
2004/6/5 14:00,0,0,0
2004/6/5 14:15,0,0,0
2004/6/5 14:30,0,0,0
2004/6/5 14:45,0,0,0
2004/6/5 15:00,0,0,0
2004/6/5 15:15,0,0,0
2004/6/5 15:30,0,0,0
2004/6/5 15:45,0,0,0
2004/6/5 16:00,0,0,0
2004/6/5 16:15,0,0,0
2004/6/5 16:30,0,0,0
2004/6/5 16:45,0,0,0
2004/6/5 17:00,0,0,0
2004/6/5 17:15,0,0,0
2004/6/5 17:30,0,0,0
2004/6/5 17:45,0,0,0
2004/6/5 18:00,0,0,0
2004/6/5 18:15,0,0,0
2004/6/5 18:30,0,0,0
2004/6/5 18:45,0,0,0
2004/6/5 19:00,0,0,0
2004/6/5 19:15,0,0,0
2004/6/5 19:30,0,0,0
2004/6/5 19:45,0,0,0
2004/6/5 20:00,0,0,0
2004/6/5 20:15,0,0,0
2004/6/5 20:30,0,0,0
2004/6/5 20:45,0,0,0
2004/6/5 21:00,0,0,0
2004/6/5 21:15,0,0,0
2004/6/5 21:30,0,0,0
2004/6/5 21:45,0,0,0
2004/6/5 22:00,0,0,0
2004/6/5 22:15,0,0,0
2004/6/5 22:30,0,0,0
2004/6/5 22:45,0,0,0
2004/6/5 23:00,0,0,0
2004/6/5 23:15,0,0,0
2004/6/5 23:30,0,0,0
2004/6/5 23:45,0,0,0
2004/6/6 0:00,0,0,0
2004/6/6 0:15,0,0,0
2004/6/6 0:30,0,0,0
2004/6/6 0:45,0,0,0
2004/6/6 1:00,0,0,0
2004/6/6 1:15,0,0,0
2004/6/6 1:30,0,0,0
2004/6/6 1:45,0,0,0
2004/6/6 2:00,0,0,0
2004/6/6 2:15,0,0,0
2004/6/6 2:30,0,0,0
2004/6/6 2:45,0,0,0
2004/6/6 3:00,0,0,0
2004/6/6 3:15,0,0,0
2004/6/6 3:30,0,0,0
2004/6/6 3:45,0,0,0
2004/6/6 4:00,0,0,0
2004/6/6 4:15,0,0,0
2004/6/6 4:30,0,0,0
2004/6/6 4:45,0,0,0
2004/6/6 5:00,0,0,0
2004/6/6 5:15,0,0,0
2004/6/6 5:30,0,0,0
2004/6/6 5:45,0,0,0
2004/6/6 6:00,0,0,0
2004/6/6 6:15,0,0,0
2004/6/6 6:30,0,0,0
2004/6/6 6:45,0,0,0
2004/6/6 7:00,0,0,0
2004/6/6 7:15,0,0,0
2004/6/6 7:30,0,0,0
2004/6/6 7:45,0,0,0
2004/6/6 8:00,0,0,0
2004/6/6 8:15,0,0,0
2004/6/6 8:30,0,0,0
2004/6/6 8:45,0,0,0
2004/6/6 9:00,0,0,0
2004/6/6 9:15,0,0,0
2004/6/6 9:30,0,0,0
2004/6/6 9:45,0,0,0
2004/6/6 10:00,0,0,0
2004/6/6 10:15,0,0,0
2004/6/6 10:30,0,0,0
2004/6/6 10:45,0,0,0
2004/6/6 11:00,0,0,0
2004/6/6 11:15,0,0,0
2004/6/6 11:30,0,0,0
2004/6/6 11:45,0,0,0
2004/6/6 12:00,0,0,0
2004/6/6 12:15,0,0,0
2004/6/6 12:30,0,0,0
2004/6/6 12:45,0,0,0
2004/6/6 13:00,0,0,0
2004/6/6 13:15,0,0,0
2004/6/6 13:30,0,0,0
2004/6/6 13:45,0,0,0
2004/6/6 14:00,0,0,0
2004/6/6 14:15,0,0,0
2004/6/6 14:30,0,0,0
2004/6/6 14:45,0,0,0
2004/6/6 15:00,0,0,0
2004/6/6 15:15,0,0,0
2004/6/6 15:30,0,0,0
2004/6/6 15:45,0,0,0
2004/6/6 16:00,0,0,0
2004/6/6 16:15,0,0,0
2004/6/6 16:30,0,0,0
2004/6/6 16:45,0,0,0
2004/6/6 17:00,0,0,0
2004/6/6 17:15,0,0,0
2004/6/6 17:30,0,0,0
2004/6/6 17:45,0,0,0
2004/6/6 18:00,0,0,0
2004/6/6 18:15,0,0,0
2004/6/6 18:30,0,0,0
2004/6/6 18:45,0,0,0
2004/6/6 19:00,0,0,0
2004/6/6 19:15,0,0,0
2004/6/6 19:30,0,0,0
2004/6/6 19:45,0,0,0
2004/6/6 20:00,0,0,0
2004/6/6 20:15,0,0,0
2004/6/6 20:30,0,0,0
2004/6/6 20:45,0,0,0
2004/6/6 21:00,0,0,0
2004/6/6 21:15,0,0,0
2004/6/6 21:30,0,0,0
2004/6/6 21:45,0,0,0
2004/6/6 22:00,0,0,0
2004/6/6 22:15,0,0,0
2004/6/6 22:30,0,0,0
2004/6/6 22:45,0,0,0
2004/6/6 23:00,0,0,0
2004/6/6 23:15,0,0,0
2004/6/6 23:30,0,0,0
2004/6/6 23:45,0,0,0
2004/6/7 0:00,0,0,0
2004/6/7 0:15,0,0,0
2004/6/7 0:30,0,0,0
2004/6/7 0:45,0,0,0
2004/6/7 1:00,0,0,0
2004/6/7 1:15,0,0,0
2004/6/7 1:30,0,0,0
2004/6/7 1:45,0,0,0
2004/6/7 2:00,0,0,0
2004/6/7 2:15,0,0,0
2004/6/7 2:30,0,0,0
2004/6/7 2:45,0,0,0
2004/6/7 3:00,0,0,0
2004/6/7 3:15,0,0,0
2004/6/7 3:30,0,0,0
2004/6/7 3:45,0,0,0
2004/6/7 4:00,0,0,0
2004/6/7 4:15,0,0,0
2004/6/7 4:30,0,0,0
2004/6/7 4:45,0,0,0
2004/6/7 5:00,0,0,0
2004/6/7 5:15,0,0,0
2004/6/7 5:30,0,0,0
2004/6/7 5:45,0,0,0
2004/6/7 6:00,0,0,0
2004/6/7 6:15,0,0,0
2004/6/7 6:30,0,0,0
2004/6/7 6:45,0,0,0
2004/6/7 7:00,0,0,0
2004/6/7 7:15,0,0,0
2004/6/7 7:30,0,0,0
2004/6/7 7:45,0,0,0
2004/6/7 8:00,0,0,0
2004/6/7 8:15,0,0,0
2004/6/7 8:30,0,0,0
2004/6/7 8:45,0,0,0
2004/6/7 9:00,0,0,0
2004/6/7 9:15,0,0,0
2004/6/7 9:30,0,0,0
2004/6/7 9:45,0,0,0
2004/6/7 10:00,0,0,0
2004/6/7 10:15,0,0,0
2004/6/7 10:30,0,0,0
2004/6/7 10:45,0,0,0
2004/6/7 11:00,0,0,0
2004/6/7 11:15,0,0,0
2004/6/7 11:30,0,0,0
2004/6/7 11:45,0,0,0
2004/6/7 12:00,0,0,0
2004/6/7 12:15,0,0,0
2004/6/7 12:30,0,0,0
2004/6/7 12:45,0,0,0
2004/6/7 13:00,0,0,0
2004/6/7 13:15,0,0,0
2004/6/7 13:30,0,0,0
2004/6/7 13:45,0,0,0
2004/6/7 14:00,0,0,0
2004/6/7 14:15,0,0,0
2004/6/7 14:30,0,0,0
2004/6/7 14:45,0,0,0
2004/6/7 15:00,0,0,0
2004/6/7 15:15,0,0,0
2004/6/7 15:30,0,0,0
2004/6/7 15:45,0,0,0
2004/6/7 16:00,0,0,0
2004/6/7 16:15,0,0,0
2004/6/7 16:30,0,0,0
2004/6/7 16:45,0,0,0
2004/6/7 17:00,0,0,0
2004/6/7 17:15,0,0,0
2004/6/7 17:30,0,0,0
2004/6/7 17:45,0,0,0
2004/6/7 18:00,0,0,0
2004/6/7 18:15,0,0,0
2004/6/7 18:30,0,0,0
2004/6/7 18:45,0,0,0
2004/6/7 19:00,0,0,0
2004/6/7 19:15,0,0,0
2004/6/7 19:30,0,0,0
2004/6/7 19:45,0,0,0
2004/6/7 20:00,0,0,0
2004/6/7 20:15,0,0,0
2004/6/7 20:30,0,0,0
2004/6/7 20:45,0,0,0
2004/6/7 21:00,0,0,0
2004/6/7 21:15,0,0,0
2004/6/7 21:30,0,0,0
2004/6/7 21:45,0,0,0
2004/6/7 22:00,0,0,0
2004/6/7 22:15,0,0,0
2004/6/7 22:30,0,0,0
2004/6/7 22:45,0,0,0
2004/6/7 23:00,0,0,0
2004/6/7 23:15,0,0,0
2004/6/7 23:30,0,0,0
2004/6/7 23:45,0,0,0
2004/6/8 0:00,0,0,0
2004/6/8 0:15,0,0,0
2004/6/8 0:30,0,0,0
2004/6/8 0:45,0,0,0
2004/6/8 1:00,0,0,0
2004/6/8 1:15,0,0,0
2004/6/8 1:30,0,0,0
2004/6/8 1:45,0,0,0
2004/6/8 2:00,0,0,0
2004/6/8 2:15,0,0,0
2004/6/8 2:30,0,0,0
2004/6/8 2:45,0,0,0
2004/6/8 3:00,0,0,0
2004/6/8 3:15,0,0,0
2004/6/8 3:30,0,0,0
2004/6/8 3:45,0,0,0
2004/6/8 4:00,0,0,0
2004/6/8 4:15,0,0,0
2004/6/8 4:30,0,0,0
2004/6/8 4:45,0,0,0
2004/6/8 5:00,0,0,0
2004/6/8 5:15,0,0,0
2004/6/8 5:30,0,0,0
2004/6/8 5:45,0,0,0
2004/6/8 6:00,0,0,0
2004/6/8 6:15,0,0,0
2004/6/8 6:30,0,0,0
2004/6/8 6:45,0,0,0
2004/6/8 7:00,0,0,0
2004/6/8 7:15,0,0,0
2004/6/8 7:30,0,0,0
2004/6/8 7:45,0,0,0
2004/6/8 8:00,0,0,0
2004/6/8 8:15,0,0,0
2004/6/8 8:30,0,0,0
2004/6/8 8:45,0,0,0
2004/6/8 9:00,0,0,0
2004/6/8 9:15,0,0,0
2004/6/8 9:30,0,0,0
2004/6/8 9:45,0,0,0
2004/6/8 10:00,0,0,0
2004/6/8 10:15,0,0,0
2004/6/8 10:30,0,0,0
2004/6/8 10:45,0,0,0
2004/6/8 11:00,0,0,0
2004/6/8 11:15,0,0,0
2004/6/8 11:30,0,0,0
2004/6/8 11:45,0,0,0
2004/6/8 12:00,0,0,0
2004/6/8 12:15,0,0,0
2004/6/8 12:30,0,0,0
2004/6/8 12:45,0,0,0
2004/6/8 13:00,0,0,0
2004/6/8 13:15,0,0,0
2004/6/8 13:30,0,0,0
2004/6/8 13:45,0,0,0
2004/6/8 14:00,0,0,0
2004/6/8 14:15,0,0,0
2004/6/8 14:30,0,0,0
2004/6/8 14:45,0,0,0
2004/6/8 15:00,0,0,0
2004/6/8 15:15,0,0,0
2004/6/8 15:30,0,0,0
2004/6/8 15:45,0,0,0
2004/6/8 16:00,0,0,0
2004/6/8 16:15,0,0,0
2004/6/8 16:30,0,0,0
2004/6/8 16:45,0,0,0
2004/6/8 17:00,0,0,0
2004/6/8 17:15,0,0,0
2004/6/8 17:30,0,0,0
2004/6/8 17:45,0,0,0
2004/6/8 18:00,0,0,0
2004/6/8 18:15,0,0,0
2004/6/8 18:30,0,0,0
2004/6/8 18:45,0,0,0
2004/6/8 19:00,0,0,0
2004/6/8 19:15,0,0,0
2004/6/8 19:30,0,0,0
2004/6/8 19:45,0,0,0
2004/6/8 20:00,0,0,0
2004/6/8 20:15,0,0,0
2004/6/8 20:30,0,0,0
2004/6/8 20:45,0,0,0
2004/6/8 21:00,0,0,0
2004/6/8 21:15,0,0,0
2004/6/8 21:30,0,0,0
2004/6/8 21:45,0,0,0
2004/6/8 22:00,0,0,0
2004/6/8 22:15,0,0,0
2004/6/8 22:30,0,0,0
2004/6/8 22:45,0,0,0
2004/6/8 23:00,0,0,0
2004/6/8 23:15,0,0,0
2004/6/8 23:30,0,0,0
2004/6/8 23:45,0,0,0
2004/6/9 0:00,0,0,0
2004/6/9 0:15,0,0,0
2004/6/9 0:30,0,0,0
2004/6/9 0:45,0,0,0
2004/6/9 1:00,0,0,0
2004/6/9 1:15,0,0,0
2004/6/9 1:30,0,0,0
2004/6/9 1:45,0,0,0
2004/6/9 2:00,0,0,0
2004/6/9 2:15,0,0,0
2004/6/9 2:30,0,0,0
2004/6/9 2:45,0,0,0
2004/6/9 3:00,0,0,0
2004/6/9 3:15,0,0,0
2004/6/9 3:30,0,0,0
2004/6/9 3:45,0,0,0
2004/6/9 4:00,0,0,0
2004/6/9 4:15,0,0,0
2004/6/9 4:30,0,0,0
2004/6/9 4:45,0,0,0
2004/6/9 5:00,0,0,0
2004/6/9 5:15,0,0,0
2004/6/9 5:30,0,0,0
2004/6/9 5:45,0,0,0
2004/6/9 6:00,0,0,0
2004/6/9 6:15,0,0,0
2004/6/9 6:30,6.970509529,0.259999998,0
2004/6/9 6:45,6.353887797,0.237000012,0
2004/6/9 7:00,6.353887797,0.237000012,0
2004/6/9 7:15,6.353887797,0.237000012,0
2004/6/9 7:30,6.353887797,0.237000012,0
2004/6/9 7:45,3.592493415,0.134000004,0
2004/6/9 8:00,0,0,0
2004/6/9 8:15,0,0,0
2004/6/9 8:30,0,0,0
2004/6/9 8:45,0,0,0
2004/6/9 9:00,0,0,0
2004/6/9 9:15,0,0,0
2004/6/9 9:30,0,0,0
2004/6/9 9:45,0,0,0
2004/6/9 10:00,0,0,0
2004/6/9 10:15,0,0,0
2004/6/9 10:30,0,0,0
2004/6/9 10:45,0,0,0
2004/6/9 11:00,0,0,0
2004/6/9 11:15,0,0,0
2004/6/9 11:30,0,0,0
2004/6/9 11:45,0,0,0
2004/6/9 12:00,0,0,0
2004/6/9 12:15,0,0,0
2004/6/9 12:30,0,0,0
2004/6/9 12:45,0,0,0
2004/6/9 13:00,0,0,0
2004/6/9 13:15,0,0,0
2004/6/9 13:30,0,0,0
2004/6/9 13:45,0,0,0
2004/6/9 14:00,0,0,0
2004/6/9 14:15,0,0,0
2004/6/9 14:30,0,0,0
2004/6/9 14:45,0,0,0
2004/6/9 15:00,0,0,0
2004/6/9 15:15,0,0,0
2004/6/9 15:30,0,0,0
2004/6/9 15:45,0,0,0
2004/6/9 16:00,0,0,0
2004/6/9 16:15,0,0,0
2004/6/9 16:30,0,0,0
2004/6/9 16:45,0,0,0
2004/6/9 17:00,0,0,0
2004/6/9 17:15,0,0,0
2004/6/9 17:30,0,0,0
2004/6/9 17:45,0,0,0
2004/6/9 18:00,0,0,0
2004/6/9 18:15,0,0,0
2004/6/9 18:30,0,0,0
2004/6/9 18:45,0,0,0
2004/6/9 19:00,0,0,0
2004/6/9 19:15,0,0,0
2004/6/9 19:30,0,0,0
2004/6/9 19:45,0,0,0
2004/6/9 20:00,0,0,0
2004/6/9 20:15,0,0,0
2004/6/9 20:30,0,0,0
2004/6/9 20:45,0,0,0
2004/6/9 21:00,0,0,0
2004/6/9 21:15,0,0,0
2004/6/9 21:30,0,0,0
2004/6/9 21:45,0,0,0
2004/6/9 22:00,0,0,0
2004/6/9 22:15,0,0,0
2004/6/9 22:30,0,0,0
2004/6/9 22:45,0,0,0
2004/6/9 23:00,0,0,0
2004/6/9 23:15,0,0,0
2004/6/9 23:30,0,0,0
2004/6/9 23:45,0,0,0
2004/6/10 0:00,0,0,0
2004/6/10 0:15,0,0,0
2004/6/10 0:30,0,0,0
2004/6/10 0:45,0,0,0
2004/6/10 1:00,0,0,0
2004/6/10 1:15,0,0,0
2004/6/10 1:30,0,0,0
2004/6/10 1:45,0,0,0
2004/6/10 2:00,0,0,0
2004/6/10 2:15,0,0,0
2004/6/10 2:30,0,0,0
2004/6/10 2:45,0,0,0
2004/6/10 3:00,0,0,0
2004/6/10 3:15,0,0,0
2004/6/10 3:30,0,0,0
2004/6/10 3:45,0,0,0
2004/6/10 4:00,0,0,0
2004/6/10 4:15,0,0,0
2004/6/10 4:30,0,0,0
2004/6/10 4:45,0,0,0
2004/6/10 5:00,0,0,0
2004/6/10 5:15,0,0,0
2004/6/10 5:30,0,0,0
2004/6/10 5:45,0,0,0
2004/6/10 6:00,0,0,0
2004/6/10 6:15,0,0,0
2004/6/10 6:30,0,0,0
2004/6/10 6:45,0,0,0
2004/6/10 7:00,0,0,0
2004/6/10 7:15,0,0,0
2004/6/10 7:30,0,0,0
2004/6/10 7:45,0,0,0
2004/6/10 8:00,0,0,0
2004/6/10 8:15,0,0,0
2004/6/10 8:30,0,0,0
2004/6/10 8:45,0,0,0
2004/6/10 9:00,0,0,0
2004/6/10 9:15,0,0,0
2004/6/10 9:30,0,0,0
2004/6/10 9:45,0,0,0
2004/6/10 10:00,0,0,0
2004/6/10 10:15,0,0,0
2004/6/10 10:30,0,0,0
2004/6/10 10:45,0,0,0
2004/6/10 11:00,0,0,0
2004/6/10 11:15,0,0,0
2004/6/10 11:30,0,0,0
2004/6/10 11:45,0,0,0
2004/6/10 12:00,0,0,0
2004/6/10 12:15,0,0,0
2004/6/10 12:30,0,0,0
2004/6/10 12:45,0,0,0
2004/6/10 13:00,0,0,0
2004/6/10 13:15,0,0,0
2004/6/10 13:30,0,0,0
2004/6/10 13:45,0,0,0
2004/6/10 14:00,0,0,0
2004/6/10 14:15,0,0,0
2004/6/10 14:30,0,0,0
2004/6/10 14:45,0,0,0
2004/6/10 15:00,0,0,0
2004/6/10 15:15,0,0,0
2004/6/10 15:30,0,0,0
2004/6/10 15:45,0,0,0
2004/6/10 16:00,0,0,0
2004/6/10 16:15,0,0,0
2004/6/10 16:30,0,0,0
2004/6/10 16:45,0,0,0
2004/6/10 17:00,0,0,0
2004/6/10 17:15,0,0,0
2004/6/10 17:30,0,0,0
2004/6/10 17:45,0,0,0
2004/6/10 18:00,0,0,0
2004/6/10 18:15,0,0,0
2004/6/10 18:30,0,0,0
2004/6/10 18:45,0,0,0
2004/6/10 19:00,0,0,0
2004/6/10 19:15,0,0,0
2004/6/10 19:30,0,0,0
2004/6/10 19:45,0,0,0
2004/6/10 20:00,0,0,0
2004/6/10 20:15,0,0,0
2004/6/10 20:30,0,0,0
2004/6/10 20:45,0,0,0
2004/6/10 21:00,0,0,0
2004/6/10 21:15,0,0,0
2004/6/10 21:30,0,0,0
2004/6/10 21:45,0,0,0
2004/6/10 22:00,0,0,0
2004/6/10 22:15,0,0,0
2004/6/10 22:30,0,0,0
2004/6/10 22:45,0,0,0
2004/6/10 23:00,0,0,0
2004/6/10 23:15,0,0,0
2004/6/10 23:30,0,0,0
2004/6/10 23:45,0,0,0
2004/6/11 0:00,0,0,0
2004/6/11 0:15,0,0,0
2004/6/11 0:30,0,0,0
2004/6/11 0:45,0,0,0
2004/6/11 1:00,0,0,0
2004/6/11 1:15,0,0,0
2004/6/11 1:30,0,0,0
2004/6/11 1:45,0,0,0
2004/6/11 2:00,0,0,0
2004/6/11 2:15,0,0,0
2004/6/11 2:30,0,0,0
2004/6/11 2:45,0,0,0
2004/6/11 3:00,0,0,0
2004/6/11 3:15,0,0,0
2004/6/11 3:30,0,0,0
2004/6/11 3:45,0,0,0
2004/6/11 4:00,0,0,0
2004/6/11 4:15,0,0,0
2004/6/11 4:30,0,0,0
2004/6/11 4:45,0,0,0
2004/6/11 5:00,0,0,0
2004/6/11 5:15,0,0,0
2004/6/11 5:30,0,0,0
2004/6/11 5:45,0,0,0
2004/6/11 6:00,0,0,0
2004/6/11 6:15,0,0,0
2004/6/11 6:30,0,0,0
2004/6/11 6:45,0,0,0
2004/6/11 7:00,0,0,0
2004/6/11 7:15,0,0,0
2004/6/11 7:30,0,0,0
2004/6/11 7:45,0,0,0
2004/6/11 8:00,0,0,0
2004/6/11 8:15,0,0,0
2004/6/11 8:30,0,0,0
2004/6/11 8:45,0,0,0
2004/6/11 9:00,0,0,0
2004/6/11 9:15,0,0,0
2004/6/11 9:30,0,0,0
2004/6/11 9:45,0,0,0
2004/6/11 10:00,0,0,0
2004/6/11 10:15,0,0,0
2004/6/11 10:30,0,0,0
2004/6/11 10:45,0,0,0
2004/6/11 11:00,0,0,0
2004/6/11 11:15,0,0,0
2004/6/11 11:30,0,0,0
2004/6/11 11:45,0,0,0
2004/6/11 12:00,0,0,0
2004/6/11 12:15,0,0,0
2004/6/11 12:30,0,0,0
2004/6/11 12:45,0,0,0
2004/6/11 13:00,0,0,0
2004/6/11 13:15,0,0,0
2004/6/11 13:30,0,0,0
2004/6/11 13:45,0,0,0
2004/6/11 14:00,0,0,0
2004/6/11 14:15,0,0,0
2004/6/11 14:30,0,0,0
2004/6/11 14:45,0,0,0
2004/6/11 15:00,0,0,0
2004/6/11 15:15,0,0,0
2004/6/11 15:30,0,0,0
2004/6/11 15:45,0,0,0
2004/6/11 16:00,0,0,0
2004/6/11 16:15,0,0,0
2004/6/11 16:30,0,0,0
2004/6/11 16:45,0,0,0
2004/6/11 17:00,0,0,0
2004/6/11 17:15,0,0,0
2004/6/11 17:30,0,0,0
2004/6/11 17:45,0,0,0
2004/6/11 18:00,0,0,0
2004/6/11 18:15,0,0,0
2004/6/11 18:30,0,0,0
2004/6/11 18:45,0,0,0
2004/6/11 19:00,0,0,0
2004/6/11 19:15,0,0,0
2004/6/11 19:30,0,0,0
2004/6/11 19:45,0,0,0
2004/6/11 20:00,0,0,0
2004/6/11 20:15,0,0,0
2004/6/11 20:30,0,0,0
2004/6/11 20:45,0,0,0
2004/6/11 21:00,0,0,0
2004/6/11 21:15,0,0,0
2004/6/11 21:30,0,0,0
2004/6/11 21:45,0,0,0
2004/6/11 22:00,0,0,0
2004/6/11 22:15,0,0,0
2004/6/11 22:30,0,0,0
2004/6/11 22:45,0,0,0
2004/6/11 23:00,0,0,0
2004/6/11 23:15,0,0,0
2004/6/11 23:30,0,0,0
2004/6/11 23:45,0,0,0
2004/6/12 0:00,0,0,0
2004/6/12 0:15,0,0,0
2004/6/12 0:30,0,0,0
2004/6/12 0:45,0,0,0
2004/6/12 1:00,0,0,0
2004/6/12 1:15,0,0,0
2004/6/12 1:30,0,0,0
2004/6/12 1:45,0,0,0
2004/6/12 2:00,0,0,0
2004/6/12 2:15,0,0,0
2004/6/12 2:30,0,0,0
2004/6/12 2:45,0,0,0
2004/6/12 3:00,0,0,0
2004/6/12 3:15,0,0,0
2004/6/12 3:30,0,0,0
2004/6/12 3:45,0,0,0
2004/6/12 4:00,0,0,0
2004/6/12 4:15,0,0,0
2004/6/12 4:30,0,0,0
2004/6/12 4:45,0,0,0
2004/6/12 5:00,0,0,0
2004/6/12 5:15,0,0,0
2004/6/12 5:30,0,0,0
2004/6/12 5:45,0,0,0
2004/6/12 6:00,0,0,0
2004/6/12 6:15,0,0,0